MONOLITH (49052 NORAD) Tracking and Keplerian Element Data

This shows tracking and keplerian element data for the satellite.

Feedback or suggestion? Click here.




ElementValue
Catalog49052
NameMONOLITH
Epoch Orbit769
Epoch Day261.73621932
Epoch Year2021
RAAN7.6466
Inclination37.0216
Eccentricity0.0008608
Argument of Perigee313.0138
Mean Anonmoly46.9876
Mean Motion14.88091713
Decay Rate4.88E-06
L11 49052U 21068A 21261.73621932 .00000488 00000-0 59872-4 0 9997
L22 49052 37.0216 7.6466 0008608 313.0138 46.9876 14.88091713 7695

Live tracking and technical data element details for MONOLITH (NORAD 49052). MONOLITH can be tracked NOW for your location showing map with azimuth and elevation plus other details from your city location.

Track the satellite on the map from your city or location and see movement details for azimuth, elevation, latitude, longitude, range, height, and movement on the map or in text.







IsCatalogInMostPopularTable: catalog: 49052, numindb: 18
Update: records affected: 1



GetName: 49052 MONOLITH

Hit Count: updated at: Fri, 24 Sep 2021 18:46:16 GMT